Total_Precipitation_Accumulation
1.88 1.88 1.96 2.02 1.82 1.94 2.23 2.49 2.43 2.59 2.61 2.39 2.03 1.85 1.73 1.74 1.70 1.85 2.06 1.94 1.90 2.00 2.32 2.54 2.48 2.30 2.16 1.86 1.53 1.42 1.42 1.39 1.28 1.02 0.92 0.89 0.93 0.96 0.91 0.77 0.67 0.57 0.49
2.08 2.19 2.20 2.18 1.95 1.94 2.18 2.40 2.34 2.68 2.60 2.56 2.20 2.02 1.88 1.81 1.62 1.70 1.96 2.06 1.94 1.86 2.07 2.54 2.77 2.65 2.56 2.42 1.99 1.67 1.62 1.63 1.53 1.20 0.98 0.94 1.01 1.07 1.06 0.98 0.83 0.64 0.49
2.20 2.20 2.14 2.14 2.12 2.05 2.25 2.36 2.43 2.58 2.42 2.33 2.29 2.17 2.02 1.99 1.77 1.69 1.85 2.05 1.93 1.83 1.97 2.35 2.72 2.79 2.72 2.77 2.60 2.26 2.01 1.91 1.75 1.44 1.17 1.02 1.03 1.04 1.07 1.06 0.95 0.74 0.53
2.22 2.39 2.19 2.08 2.29 2.27 2.41 2.67 2.66 2.80 2.89 2.80 2.54 2.22 2.01 2.10 1.81 1.71 1.78 1.99 2.17 1.85 2.01 2.32 2.60 2.69 2.83 3.08 3.23 3.09 2.66 2.27 2.01 1.82 1.56 1.31 1.21 1.16 1.06 1.03 0.99 0.78 0.54
2.33 2.66 2.50 2.49 2.48 2.48 2.51 2.25 2.82 3.13 3.14 3.01 2.54 2.26 1.98 1.94 1.79 1.65 1.72 1.67 1.83 1.89 1.89 1.98 2.30 2.37 2.71 3.20 3.47 3.56 3.38 2.97 2.62 2.52 2.39 2.10 1.91 1.59 1.27 1.09 0.96 0.75 0.56
2.60 2.83 2.62 2.58 2.59 2.70 2.66 2.73 3.14 3.11 2.86 2.88 2.33 2.02 1.89 1.68 1.63 1.56 1.40 1.45 1.50 1.46 1.63 1.74 2.04 1.77 2.05 2.47 2.77 3.16 3.58 3.75 3.46 3.38 3.46 3.25 2.87 2.22 1.57 1.25 1.00 0.81 0.67
2.56 2.83 2.69 2.87 2.77 2.66 2.66 2.72 2.98 3.03 2.73 2.92 2.84 2.34 1.86 1.44 1.44 1.30 1.27 1.39 1.37 1.48 1.65 1.79 1.99 2.02 1.95 1.96 1.98 2.36 3.14 3.83 3.90 3.74 3.99 4.17 3.78 2.88 2.02 1.52 1.13 0.92 0.78
2.44 2.51 2.81 2.63 2.61 2.66 2.63 2.75 2.96 2.82 2.45 2.86 3.04 3.02 2.42 1.98 1.50 1.13 1.37 1.47 1.46 1.60 1.60 1.67 1.94 2.19 2.12 2.29 1.84 1.74 2.42 3.20 3.63 3.70 3.82 4.01 3.79 3.07 2.34 1.87 1.35 1.01 0.85
2.32 2.43 2.56 2.59 2.54 2.45 2.50 2.68 2.72 2.72 2.60 2.67 2.85 3.11 2.81 2.29 1.83 1.34 1.20 1.33 1.56 1.71 1.66 1.70 1.73 1.92 1.96 2.36 2.44 2.03 1.97 2.18 2.74 3.47 3.82 3.74 3.33 2.77 2.29 2.06 1.77 1.37 1.05
2.28 2.32 2.36 2.37 2.36 2.26 2.32 2.18 2.27 2.64 2.75 2.52 2.64 2.62 2.58 2.50 2.32 1.80 1.40 1.29 1.37 1.47 1.62 1.52 1.48 1.69 1.85 2.11 2.29 2.05 1.86 1.78 2.04 2.85 3.32 3.35 3.05 2.58 2.26 2.21 2.39 2.14 1.57
2.13 1.99 2.04 2.21 2.20 2.10 2.05 2.07 2.25 2.36 2.35 2.33 2.43 2.53 2.56 2.50 2.24 2.00 1.64 1.40 1.27 1.10 1.21 1.28 1.36 1.46 1.56 1.95 2.32 2.03 1.86 1.64 1.70 2.16 2.53 2.71 2.75 2.52 2.23 2.23 2.57 2.76 2.45
1.87 1.72 1.79 1.95 1.97 1.96 1.95 1.91 1.97 2.07 2.12 2.18 2.26 2.32 2.41 2.32 2.24 2.25 1.84 1.53 1.36 0.98 0.96 1.07 1.15 1.25 1.37 1.64 1.76 1.77 1.59 1.49 1.50 1.59 1.69 1.97 2.25 2.35 2.30 2.31 2.56 2.86 2.95
1.65 1.61 1.64 1.69 1.70 1.73 1.76 1.83 1.85 1.91 2.05 2.13 2.12 2.18 2.25 2.18 2.17 2.17 2.02 1.69 1.50 1.08 1.06 1.11 1.12 1.32 1.33 1.59 1.81 1.64 1.40 1.32 1.26 1.20 1.20 1.33 1.56 1.79 1.91 2.02 2.28 2.62 2.88
1.55 1.54 1.49 1.44 1.47 1.51 1.55 1.76 1.79 1.88 2.01 2.06 1.99 2.24 2.19 2.03 2.09 2.12 2.14 2.19 1.94 1.58 1.43 1.28 1.17 1.18 1.27 1.44 1.63 1.55 1.27 1.16 1.04 0.95 0.94 1.00 1.11 1.23 1.35 1.52 1.75 1.95 2.09
1.47 1.46 1.47 1.51 1.45 1.47 1.54 1.64 1.65 1.67 1.83 1.88 1.95 2.15 2.15 2.06 2.03 2.10 2.26 2.40 2.45 2.17 1.94 1.76 1.48 1.19 1.23 1.30 1.43 1.25 1.18 1.11 0.98 0.86 0.79 0.79 0.85 0.94 1.02 1.12 1.25 1.37 1.45
1.31 1.30 1.31 1.35 1.37 1.35 1.37 1.50 1.52 1.56 1.69 1.74 1.84 1.94 1.99 1.97 2.01 2.06 2.24 2.34 2.40 2.39 2.09 1.87 1.71 1.34 1.26 1.13 1.24 1.09 1.06 1.11 1.01 0.91 0.82 0.75 0.74 0.78 0.84 0.94 1.06 1.13 1.18
1.23 1.19 1.21 1.28 1.30 1.31 1.36 1.42 1.39 1.51 1.55 1.56 1.59 1.72 1.82 1.97 1.97 1.82 1.90 2.02 2.13 2.28 2.05 1.89 1.84 1.64 1.55 1.41 1.33 1.25 1.09 1.04 0.92 0.85 0.83 0.80 0.77 0.77 0.80 0.85 0.92 1.01 1.07
1.13 1.13 1.19 1.22 1.18 1.22 1.34 1.41 1.42 1.49 1.54 1.52 1.55 1.71 1.74 1.81 1.90 1.81 1.75 1.77 1.94 2.15 2.12 2.01 2.07 2.00 1.80 1.63 1.57 1.46 1.16 1.00 0.99 0.88 0.79 0.75 0.74 0.73 0.74 0.79 0.86 0.93 1.00
1.08 1.08 1.05 1.05 1.06 1.14 1.29 1.33 1.40 1.45 1.51 1.57 1.57 1.56 1.54 1.66 1.80 1.91 1.90 1.87 1.92 2.07 2.23 2.17 2.17 2.23 1.99 1.76 1.82 1.66 1.47 1.47 1.12 1.01 0.87 0.75 0.72 0.72 0.70 0.72 0.76 0.84 0.90
1.07 1.08 1.07 1.09 1.12 1.14 1.18 1.24 1.28 1.27 1.28 1.31 1.34 1.35 1.36 1.40 1.57 1.90 1.95 2.03 2.07 2.11 2.27 2.28 2.29 2.32 2.33 2.10 2.09 1.89 1.76 1.68 1.46 1.15 1.06 0.86 0.80 0.81 0.79 0.75 0.74 0.81 0.91
0.88 0.99 1.07 1.06 1.07 1.06 0.98 1.05 1.10 1.05 1.09 1.05 1.04 1.05 1.07 1.14 1.17 1.32 1.44 1.70 1.92 2.02 2.07 2.19 2.23 2.27 2.28 2.38 2.16 2.02 1.96 1.91 1.80 1.53 1.44 1.11 0.96 0.93 0.87 0.81 0.75 0.79 0.92
0.94 1.03 1.05 1.00 0.94 0.81 0.88 0.96 0.98 0.98 1.00 0.98 0.91 0.90 0.91 0.97 0.98 1.01 1.03 1.20 1.47 1.71 1.96 2.16 2.22 2.25 2.27 2.36 2.35 2.22 2.13 2.00 1.91 1.71 1.67 1.56 1.41 1.42 1.23 0.94 0.87 0.84 0.90
0.95 1.00 1.03 1.08 1.04 1.01 0.98 0.97 1.00 0.95 0.94 0.92 0.89 0.90 0.78 0.73 0.82 0.81 0.88 0.93 1.05 1.20 1.35 1.72 1.97 1.99 2.07 2.19 2.41 2.36 2.31 2.25 2.14 2.01 1.98 1.98 1.88 1.80 1.43 1.22 1.14 0.89 0.83
0.99 1.04 1.05 1.09 1.15 1.06 1.06 1.03 0.99 0.88 0.89 0.94 0.91 0.92 0.87 0.83 0.84 0.90 0.96 0.93 0.87 0.90 0.99 1.09 1.21 1.39 1.62 1.96 2.24 2.38 2.52 2.56 2.54 2.40 2.36 2.41 2.23 2.11 1.84 1.52 1.26 1.01 0.85
1.03 1.02 1.09 1.17 1.22 1.21 1.15 1.03 0.96 0.87 0.91 0.95 0.92 0.91 0.91 0.85 0.86 0.81 0.91 0.96 0.93 0.89 0.90 0.98 1.00 1.15 1.29 1.50 1.78 1.98 2.14 2.33 2.56 2.64 2.54 2.56 2.48 2.37 2.41 2.21 1.71 1.37 1.08
1.24 1.23 1.17 1.20 1.23 1.29 1.22 1.05 0.97 0.92 1.00 1.08 1.13 1.10 1.05 0.98 0.93 0.88 0.87 0.94 0.95 0.92 0.96 0.99 0.98 0.97 1.00 1.09 1.29 1.45 1.61 1.85 2.09 2.32 2.19 2.22 2.35 2.53 2.77 2.64 2.24 1.82 1.45